DW7281 Weather Reports


time (UTC)temp
F
wind
direction
speed
knots
gust
knots
rain 1hr
in
rain 24hr
in
rain mn
in
humidity
%
barometer
mb
20260904163059 62 0 0.0 0.0 0.00 0.00 0.00 50 1024.5
20260904161550 62 0 0.0 7.0 0.00 0.00 0.00 50 1024.5
20260904160057 62 0 0.0 4.3 0.00 0.00 0.00 50 1024.6
20260904154555 62 0 0.0 4.3 0.00 0.00 0.00 51 1024.7
20260904153102 62 0 0.0 0.0 0.00 0.00 0.00 50 1024.7
20260904151548 62 0 0.0 0.0 0.00 0.00 0.00 50 1024.9
20260904150056 62 0 0.0 0.0 0.00 0.00 0.00 50 1024.8
20260904144553 62 0 0.0 0.0 0.00 0.00 0.00 49 1024.9
20260904143051 63 0 0.0 0.0 0.00 0.00 0.00 48 1024.9
20260904141617 63 0 0.0 4.3 0.00 0.00 0.00 48 1025.0
20260904140056 63 0 0.0 7.0 0.00 0.00 0.00 48 1024.9
20260904134556 62 0 0.0 0.0 0.00 0.00 0.00 50 1024.9
20260904133049 62 0 0.0 0.0 0.00 0.00 0.00 50 1024.9
20260904131631 62 0 0.0 0.0 0.00 0.00 0.00 51 1024.9
20260904130054 62 0 0.0 0.0 0.00 0.00 0.00 50 1025.1
20260904124551 62 0 0.0 0.0 0.00 0.00 0.00 50 1025.2
20260904123107 63 0 0.0 0.0 0.00 0.00 0.00 49 1025.3
20260904121557 63 0 0.0 0.0 0.00 0.00 0.00 49 1025.3
20260904120057 64 0 0.0 0.0 0.00 0.00 0.00 49 1025.4
20260904114550 64 0 0.0 0.0 0.00 0.00 0.00 48 1025.5
20260904113049 64 0 0.0 0.0 0.00 0.00 0.00 48 1025.3
20260904111557 64 0 0.0 0.0 0.00 0.00 0.00 47 1025.3
20260904110053 65 0 0.0 9.6 0.00 0.00 0.00 47 1025.0
20260904104554 65 180 1.7 5.2 0.00 0.00 0.00 46 1024.7
20260904103049 65 0 0.0 0.0 0.00 0.00 0.00 46 1024.7
20260904101603 66 0 0.0 0.0 0.00 0.00 0.00 45 1024.7
20260904100053 67 0 0.0 0.0 0.00 0.00 0.00 45 1024.6
20260904094550 67 0 0.0 0.0 0.00 0.00 0.00 44 1024.5
20260904093054 68 0 0.0 0.0 0.00 0.00 0.00 43 1024.3
20260904091553 69 0 0.0 5.2 0.00 0.00 0.00 42 1024.2
20260904090052 69 174 0.0 5.2 0.00 0.00 0.00 41 1024.1
20260904084643 70 0 2.6 6.1 0.00 0.00 0.00 41 1024.1
20260904083059 70 202 2.6 5.2 0.00 0.00 0.00 41 1023.9
20260904081554 71 0 0.0 0.0 0.00 0.00 0.00 41 1023.6
20260904080059 72 0 0.0 0.0 0.00 0.00 0.00 40 1023.5
20260904074622 73 0 0.0 7.8 0.00 0.00 0.00 38 1023.2
20260904073055 74 173 2.6 8.7 0.00 0.00 0.00 37 1023.3
20260904071551 75 161 3.5 10.4 0.00 0.00 0.00 36 1023.1
20260904070059 76 174 6.1 14.8 0.00 0.00 0.00 34 1023.0
20260904064556 77 196 6.1 14.8 0.00 0.00 0.00 34 1023.0
20260904063107 78 233 4.3 12.2 0.00 0.00 0.00 33 1022.9
20260904061558 78 198 5.2 15.6 0.00 0.00 0.00 32 1022.9
20260904060112 79 128 5.2 16.5 0.00 0.00 0.00 31 1022.9
20260904054555 79 171 7.0 15.6 0.00 0.00 0.00 28 1022.9
20260904053049 80 155 2.6 13.9 0.00 0.00 0.00 26 1022.9
20260904051551 80 167 6.1 14.8 0.00 0.00 0.00 25 1022.8
20260904050056 81 205 7.8 14.8 0.00 0.00 0.00 22 1022.7
20260904044558 82 199 6.1 15.6 0.00 0.00 0.00 23 1022.8
20260904043054 82 203 6.1 14.8 0.00 0.00 0.00 25 1022.8
20260904041601 82 201 5.2 14.8 0.00 0.00 0.00 26 1022.9
20260904040058 82 202 2.6 12.2 0.00 0.00 0.00 30 1022.9
20260904034612 81 224 3.5 10.4 0.00 0.00 0.00 31 1023.1
20260904033056 81 184 3.5 12.2 0.00 0.00 0.00 30 1023.4
20260904031555 80 222 1.7 10.4 0.00 0.00 0.00 33 1023.6
20260904030104 81 215 1.7 10.4 0.00 0.00 0.00 33 1024.0
20260904024603 80 194 0.9 13.9 0.00 0.00 0.00 34 1023.9
20260904023103 80 196 4.3 8.7 0.00 0.00 0.00 33 1024.2
20260904021553 79 0 4.3 11.3 0.00 0.00 0.00 32 1024.5
20260904020101 79 177 4.3 12.2 0.00 0.00 0.00 35 1024.4
20260904014558 79 215 3.5 11.3 0.00 0.00 0.00 35 1024.7
20260904013055 79 222 2.6 8.7 0.00 0.00 0.00 36 1024.9
20260904011551 79 177 3.5 8.7 0.00 0.00 0.00 37 1025.3
20260904004600 77 196 1.7 8.7 0.00 0.00 0.00 40 1025.9
20260904003056 76 0 2.6 8.7 0.00 0.00 0.00 40 1026.0
20260904001556 76 0 0.9 9.6 0.00 0.00 0.00 41 1026.2
20260904000135 75 0 0.9 8.7 0.00 0.00 0.00 42 1026.2
20260903234558 74 207 1.7 8.7 0.00 0.00 0.00 42 1026.5
20260903233101 73 0 0.0 5.2 0.00 0.00 0.00 44 1026.6
20260903231553 73 0 0.0 4.3 0.00 0.00 0.00 46 1026.6
20260903230050 72 175 1.7 6.1 0.00 0.00 0.00 48 1026.6
20260903224606 71 0 1.7 5.2 0.00 0.00 0.00 49 1026.7
20260903223051 70 259 0.9 5.2 0.00 0.00 0.00 50 1026.6
20260903221552 69 209 1.7 6.1 0.00 0.00 0.00 52 1026.5
20260903220111 68 213 0.0 6.1 0.00 0.00 0.00 53 1026.4
20260903214559 67 0 0.0 0.0 0.00 0.00 0.00 54 1026.2
20260903213050 65 0 0.0 0.0 0.00 0.00 0.00 56 1026.1
20260903211618 64 0 0.0 0.0 0.00 0.00 0.00 58 1025.7
20260903210059 61 0 0.0 0.0 0.00 0.00 0.00 63 1025.5
20260903204549 57 0 0.0 0.0 0.00 0.00 0.00 67 1025.2
20260903203056 56 0 0.0 0.0 0.00 0.00 0.00 68 1025.1
20260903201557 55 0 0.0 0.0 0.00 0.00 0.00 68 1025.0
20260903200054 55 0 0.0 0.0 0.00 0.00 0.00 68 1024.8
20260903194549 55 0 0.0 0.0 0.00 0.00 0.00 68 1024.6
20260903193056 55 0 0.0 0.0 0.00 0.00 0.00 68 1024.5
20260903191555 55 0 0.0 0.0 0.00 0.00 0.00 67 1024.4
20260903190058 55 0 0.0 0.0 0.00 0.00 0.00 66 1024.1
20260903184604 55 0 0.0 0.0 0.00 0.00 0.00 66 1023.9
20260903183057 55 0 0.0 0.0 0.00 0.00 0.00 66 1023.7
20260903181553 55 0 0.0 0.0 0.00 0.00 0.00 65 1023.5
20260903180106 56 0 0.0 0.0 0.00 0.00 0.00 64 1023.4
20260903174611 56 0 0.0 0.0 0.00 0.00 0.00 63 1023.4
20260903173106 56 0 0.0 0.0 0.00 0.00 0.00 62 1023.3
20260903171601 57 0 0.0 0.0 0.00 0.00 0.00 62 1023.2
20260903170110 57 0 0.0 0.0 0.00 0.00 0.00 61 1023.1
20260903164556 57 0 0.0 0.0 0.00 0.00 0.00 61 1023.3